Location: Cuiry
(49.3858°N, 3.7708°E)
Time: 07:22:50
(UTC+00:00)

Cosmos 1633 Rocket - Pass Details

Date: 12 January 2026
Orbit: 600 x 616 km, 82.5° (Epoch: 18 February)

Event Time Altitude Azimuth Distance (km) Brightness Sun altitude
Rises 16:38:44 0° 358° (N) 2,865 6.2 -4.9°
Reaches altitude 10° 16:41:15 10° 11° (N) 1,956 5.3 -5.3°
Maximum altitude 16:44:57 27° 70° (ENE) 1,161 3.9 -5.8°
Drops below altitude 10° 16:48:38 10° 129° (SE) 1,941 5.4 -6.3°
Sets 16:51:06 0° 142° (SE) 2,840 6.3 -6.7°
